Location: Kerguer�zec
(48.4509°N, 4.7600°W)
Time: 23:31:13
(UTC+00:00)

N. Korean satellite - Pass Details

Date: 13 March 2021
Orbit: 453 x 499 km, 97.2° (Epoch: 12 April)

Event Time Altitude Azimuth Distance (km) Brightness Sun altitude
Rises 05:35:47 0° 16° (NNE) 2,558 10.6 -10.8°
Reaches altitude 10° 05:37:52 10° 20° (NNE) 1,681 9.7 -10.5°
Maximum altitude 05:41:26 57° 100° (E) 583 7.3 -9.9°
Drops below altitude 10° 05:45:02 10° 180° (S) 1,688 9.2 -9.3°
Sets 05:47:08 0° 185° (S) 2,570 10.1 -9.0°
